Location: Capannuccia
(43.7000°N, 11.3000°E)
Time: 23:21:01
(UTC+00:00)

Envisat - Pass Details

Date: 03 August 2021
Orbit: 764 x 766 km, 98.2° (Epoch: 17 September)

Event Time Altitude Azimuth Distance (km) Brightness Sun altitude
Rises 03:29:35 0° 27° (NNE) 3,242 7.4 -6.6°
Reaches altitude 10° 03:32:26 10° 43° (NE) 2,310 7.0 -6.2°
Maximum altitude 03:36:17 21° 92° (E) 1,659 5.6 -5.6°
Drops below altitude 10° 03:40:05 10° 141° (SE) 2,296 5.6 -5.0°
Sets 03:42:54 0° 157° (SSE) 3,216 6.2 -4.5°
